N511WM KAGS-KGYH

Flight info

Callsign N511WM
Flight time 0h 27m
Altitude 8000
Route HRTWL
Aircraft BE60/L-SDFGRY/C

Departure

Time 2026-05-04 14:50
Airport Augusta Regional At Bush Field (KAGS)

Arrival

Time 2026-05-04 15:17
Airport Donaldson Field Airport (KGYH)
Time Latitude Longitude Altitude Speed Heading
2026-05-04 14:24 33.37178 -81.97161 149 ft 0 kts 166°
2026-05-04 14:41 33.37152 -81.97089 149 ft 12 kts 115°
2026-05-04 14:42 33.37072 -81.96925 149 ft 11 kts 165°
2026-05-04 14:42 33.36978 -81.96903 149 ft 16 kts 166°
2026-05-04 14:42 33.36849 -81.96872 149 ft 21 kts 168°
2026-05-04 14:43 33.36731 -81.96844 148 ft 8 kts 179°
2026-05-04 14:43 33.36703 -81.96910 148 ft 12 kts 247°
2026-05-04 14:43 33.36642 -81.96920 148 ft 11 kts 168°
2026-05-04 14:43 33.36546 -81.96897 149 ft 16 kts 169°
2026-05-04 14:44 33.36420 -81.96866 149 ft 21 kts 168°
2026-05-04 14:44 33.36267 -81.96829 149 ft 24 kts 168°
2026-05-04 14:44 33.36125 -81.96793 149 ft 11 kts 164°
2026-05-04 14:44 33.36090 -81.96732 149 ft 12 kts 88°
2026-05-04 14:45 33.36090 -81.96664 148 ft 0 kts 88°
2026-05-04 14:48 33.36090 -81.96663 148 ft 1 kts 88°
2026-05-04 14:49 33.36092 -81.96627 148 ft 9 kts 84°
2026-05-04 14:49 33.36143 -81.96567 148 ft 14 kts 360°
2026-05-04 14:49 33.36328 -81.96608 150 ft 54 kts 348°
2026-05-04 14:49 33.36890 -81.96749 168 ft 103 kts 347°
2026-05-04 14:50 33.37693 -81.96960 302 ft 131 kts 348°
2026-05-04 14:50 33.38629 -81.97201 600 ft 142 kts 347°
2026-05-04 14:50 33.39549 -81.97478 1082 ft 135 kts 343°
2026-05-04 14:50 33.40468 -81.97772 1477 ft 139 kts 341°
2026-05-04 14:51 33.41403 -81.98071 1849 ft 139 kts 342°
2026-05-04 14:51 33.42343 -81.98373 2218 ft 140 kts 341°
2026-05-04 14:51 33.43287 -81.98686 2605 ft 141 kts 345°
2026-05-04 14:51 33.44258 -81.98880 3054 ft 141 kts 346°
2026-05-04 14:52 33.45224 -81.99077 3439 ft 142 kts 346°
2026-05-04 14:52 33.46192 -81.99272 3827 ft 140 kts 346°
2026-05-04 14:52 33.47157 -81.99468 4228 ft 140 kts 346°
2026-05-04 14:52 33.48119 -81.99665 4632 ft 141 kts 346°
2026-05-04 14:53 33.49084 -81.99863 5039 ft 141 kts 347°
2026-05-04 14:53 33.50053 -82.00061 5438 ft 141 kts 347°
2026-05-04 14:53 33.51024 -82.00256 5791 ft 142 kts 348°
2026-05-04 14:53 33.51987 -82.00452 6129 ft 142 kts 348°
2026-05-04 14:54 33.52969 -82.00652 6492 ft 144 kts 349°
2026-05-04 14:54 33.53955 -82.00852 6839 ft 144 kts 349°
2026-05-04 14:54 33.54942 -82.01052 7189 ft 144 kts 349°
2026-05-04 14:54 33.55928 -82.01251 7564 ft 144 kts 349°
2026-05-04 14:55 33.56916 -82.01453 7926 ft 145 kts 349°
2026-05-04 14:55 33.57970 -82.01668 8022 ft 164 kts 350°
2026-05-04 14:55 33.59162 -82.01908 8028 ft 183 kts 350°
2026-05-04 14:55 33.60465 -82.02172 8026 ft 196 kts 350°
2026-05-04 14:56 33.61846 -82.02452 8020 ft 206 kts 350°
2026-05-04 14:56 33.63283 -82.02743 8017 ft 212 kts 350°
2026-05-04 14:56 33.64755 -82.03042 8013 ft 216 kts 350°
2026-05-04 14:56 33.66250 -82.03347 8012 ft 219 kts 350°
2026-05-04 14:57 33.67754 -82.03655 8007 ft 220 kts 350°
2026-05-04 14:57 33.69265 -82.03962 8007 ft 221 kts 350°
2026-05-04 14:57 33.70787 -82.04270 8004 ft 223 kts 349°
2026-05-04 14:57 33.72324 -82.04585 8002 ft 224 kts 349°
2026-05-04 14:58 33.73862 -82.04898 8001 ft 225 kts 349°
2026-05-04 14:58 33.75404 -82.05213 7997 ft 225 kts 349°
2026-05-04 14:58 33.76953 -82.05529 7994 ft 226 kts 349°
2026-05-04 14:58 33.78499 -82.05843 7993 ft 225 kts 349°
2026-05-04 14:59 33.80042 -82.06158 7993 ft 225 kts 349°
2026-05-04 14:59 33.81581 -82.06475 7999 ft 224 kts 349°
2026-05-04 14:59 33.84663 -82.07105 7989 ft 225 kts 349°
2026-05-04 15:00 33.86211 -82.07420 7986 ft 226 kts 349°
2026-05-04 15:00 33.87762 -82.07739 7985 ft 226 kts 349°
2026-05-04 15:00 33.89296 -82.08053 7983 ft 226 kts 349°
2026-05-04 15:01 33.92393 -82.08687 7985 ft 227 kts 349°
2026-05-04 15:01 33.93943 -82.09006 7991 ft 226 kts 349°
2026-05-04 15:01 33.95495 -82.09323 7994 ft 225 kts 349°
2026-05-04 15:01 33.97038 -82.09641 7993 ft 225 kts 348°
2026-05-04 15:02 33.98579 -82.09956 7992 ft 225 kts 348°
2026-05-04 15:02 34.00120 -82.10271 7993 ft 225 kts 348°
2026-05-04 15:02 34.01662 -82.10590 7993 ft 225 kts 348°
2026-05-04 15:02 34.03202 -82.10906 7992 ft 225 kts 348°
2026-05-04 15:03 34.04743 -82.11222 7994 ft 225 kts 348°
2026-05-04 15:03 34.06283 -82.11540 7995 ft 224 kts 348°
2026-05-04 15:03 34.07821 -82.11855 7993 ft 224 kts 348°
2026-05-04 15:03 34.09354 -82.12171 7994 ft 223 kts 348°
2026-05-04 15:04 34.10887 -82.12486 7994 ft 223 kts 348°
2026-05-04 15:04 34.12421 -82.12800 7992 ft 224 kts 348°
2026-05-04 15:04 34.13956 -82.13118 7996 ft 224 kts 348°
2026-05-04 15:04 34.15492 -82.13435 7996 ft 224 kts 348°
2026-05-04 15:05 34.17033 -82.13752 7998 ft 225 kts 348°
2026-05-04 15:05 34.18554 -82.14065 8002 ft 225 kts 348°
2026-05-04 15:05 34.20096 -82.14384 8001 ft 224 kts 348°
2026-05-04 15:05 34.21637 -82.14705 7995 ft 225 kts 348°
2026-05-04 15:06 34.23178 -82.15018 8002 ft 224 kts 347°
2026-05-04 15:06 34.24716 -82.15339 8003 ft 225 kts 347°
2026-05-04 15:06 34.26212 -82.15871 7995 ft 224 kts 337°
2026-05-04 15:07 34.29136 -82.17166 7996 ft 223 kts 338°
2026-05-04 15:07 34.30593 -82.17798 7994 ft 223 kts 338°
2026-05-04 15:07 34.32052 -82.18435 7995 ft 223 kts 338°
2026-05-04 15:07 34.33507 -82.19068 7995 ft 222 kts 338°
2026-05-04 15:08 34.34959 -82.19702 7993 ft 222 kts 338°
2026-05-04 15:08 34.36413 -82.20337 7996 ft 222 kts 338°
2026-05-04 15:08 34.37872 -82.20973 7998 ft 222 kts 337°
2026-05-04 15:08 34.39327 -82.21609 7993 ft 222 kts 338°
2026-05-04 15:09 34.40781 -82.22246 7991 ft 223 kts 338°
2026-05-04 15:09 34.42239 -82.22884 7989 ft 222 kts 338°
2026-05-04 15:09 34.43679 -82.23513 7988 ft 223 kts 338°
2026-05-04 15:10 34.46599 -82.24790 7984 ft 224 kts 338°
2026-05-04 15:10 34.48065 -82.25432 7984 ft 224 kts 337°
2026-05-04 15:10 34.50986 -82.26710 7940 ft 225 kts 337°
2026-05-04 15:11 34.52499 -82.27377 7609 ft 236 kts 337°
2026-05-04 15:11 34.54049 -82.28057 7227 ft 237 kts 337°
2026-05-04 15:11 34.55606 -82.28737 6851 ft 238 kts 338°
2026-05-04 15:11 34.57126 -82.29404 6454 ft 222 kts 337°
2026-05-04 15:12 34.58516 -82.30018 6024 ft 205 kts 337°
2026-05-04 15:12 34.59814 -82.30588 5609 ft 193 kts 337°
2026-05-04 15:12 34.61051 -82.31131 5208 ft 186 kts 336°
2026-05-04 15:12 34.62248 -82.31660 4807 ft 181 kts 336°
2026-05-04 15:13 34.63422 -82.32177 4376 ft 178 kts 336°
2026-05-04 15:13 34.64582 -82.32687 3958 ft 176 kts 336°
2026-05-04 15:13 34.65731 -82.33191 3569 ft 175 kts 335°
2026-05-04 15:13 34.66872 -82.33692 3284 ft 174 kts 335°
2026-05-04 15:14 34.67963 -82.34170 3027 ft 160 kts 334°
2026-05-04 15:14 34.68986 -82.34624 2772 ft 153 kts 334°
2026-05-04 15:14 34.69961 -82.35055 2424 ft 149 kts 335°
2026-05-04 15:14 34.70934 -82.35486 2097 ft 149 kts 335°
2026-05-04 15:15 34.71917 -82.35917 1746 ft 151 kts 335°
2026-05-04 15:15 34.72896 -82.36350 1385 ft 150 kts 337°
2026-05-04 15:15 34.73903 -82.36376 1150 ft 143 kts 21°
2026-05-04 15:16 34.75255 -82.35048 1155 ft 111 kts 38°
2026-05-04 15:16 34.75902 -82.34659 1115 ft 102 kts 351°
2026-05-04 15:16 34.76602 -82.35869 1149 ft 93 kts 280°
2026-05-04 15:17 34.76696 -82.36645 1041 ft 92 kts 256°
2026-05-04 15:17 34.75922 -82.37555 950 ft 44 kts 219°
2026-05-04 15:17 34.75857 -82.37649 953 ft 9 kts 320°
2026-05-04 15:18 34.75832 -82.37633 951 ft 18 kts 227°
2026-05-04 15:18 34.75842 -82.37715 952 ft 14 kts
2026-05-04 15:18 34.75945 -82.37693 952 ft 16 kts
2026-05-04 15:19 34.76079 -82.37672 951 ft 13 kts 39°
2026-05-04 15:19 34.76169 -82.37587 947 ft 19 kts 39°
2026-05-04 15:19 34.76297 -82.37550 945 ft 4 kts 39°
2026-05-04 15:20 34.76298 -82.37548 945 ft 0 kts 40°
2026-05-04 15:28 34.76250 -82.37593 946 ft 0 kts 195°